Regional Weather Roundup
Issued by NWS

Home | Current Version | Previous Version | Graphics & Text | Print | Product List | Glossary On
Versions: 1 2 3 4 5 6 7 8 9 10 11 12 13 14 15 16 17 18 19 20 21 22 23 24 25 26 27 28 29 30 31 32 33 34 35 36 37 38 39 40 41 42 43 44 45 46 47 48 49 50
000
ASUS45 KABQ 261310
RWRNM
NEW MEXICO REGIONAL WEATHER ROUNDUP
NATIONAL WEATHER SERVICE ALBUQUERQUE NM
700 AM MDT FRI MAY 26 2017

NOTE: "FAIR" MEANS FEW OR NO CLOUDS BELOW 12,000 FEET AGL WITH NO
       SIGNIFICANT WEATHER OR OBSTRUCTIONS TO VISION.

      THIS PRODUCT IS RELEASED AS TWO VERSIONS.  ONE VERSION NEAR
      THE TOP OF THE HOUR CONTAINING PRELIMINARY DATA FROM ALBUQUERQUE
      AND OTHER STATIONS.  A FINAL VERSION WITH ADDITIONAL DATA IS
      ISSUED ABOUT 10 MINUTES AFTER THE HOUR.

NMZ501-503-504-510>518-261400-
NORTHWEST PLATEAU/NORTHCENTRAL MOUNTAINS

CITY           SKY/WX    TMP DP  RH WIND       PRES   REMARKS
FARMINGTON     FAIR      52  23  32 NE8       29.96R
LOS ALAMOS     FAIR      59  15  18 CALM      30.11R
SANTA FE       FAIR      48  19  31 N7        30.06R
TAOS           FAIR      48  18  29 E5        30.11R
ANGEL FIRE     FAIR      50  17  26 W5        30.15R

$$
NMZ402-403-502-505>509-261400-
WESTCENTRAL MOUNTAINS/SOUTHWEST MOUNTAINS

CITY           SKY/WX    TMP DP  RH WIND       PRES   REMARKS
GALLUP         FAIR      50  19  29 S5        30.06R
GRANTS         FAIR      52  15  23 E5        30.08R
SILVER CITY    FAIR      52  20  29 NW6       30.07R

$$
NMZ407-409-411-412-261400-
SOUTHERN DESERTS

CITY           SKY/WX    TMP DP  RH WIND       PRES   REMARKS
DEMING         FAIR      58  24  27 N5        30.03R
LAS CRUCES     FAIR      60  27  27 W5        30.04R
HOLLOMAN AFB   FAIR      67  24  19 S9        30.03R
ALAMOGORDO     FAIR      59  21  23 SE6       30.01R
T OR C         FAIR      61  15  16 NW8       30.01R

$$
NMZ519>523-261400-
CENTRAL VALLEYS/CENTRAL HIGHLANDS

CITY           SKY/WX    TMP DP  RH WIND       PRES   REMARKS
ALBUQUERQUE    FAIR      56  13  18 SE10      30.03R
DOUBLE EAGLE   MOSUNNY   54  19  26 VRB5      30.05R
MORIARTY ARPT  FAIR      58  19  22 CALM      30.08R
CLINES CORNERS FAIR      55  15  20 W17       30.09R
BELEN          FAIR      56  16  21 SW3       30.04R
SOCORRO        FAIR      60  16  17 SW3       30.01R

$$
NMZ524>526-539-540-261400-
SOUTHCENTRAL MOUNTAINS

CITY           SKY/WX    TMP DP  RH WIND       PRES   REMARKS
RUIDOSO        FAIR      64  14  14 E6        30.10R

$$
NMZ527>531-261400-
NORTHEAST HIGHLANDS/NORTHEAST PLAINS

CITY           SKY/WX    TMP DP  RH WIND       PRES   REMARKS
LAS VEGAS      FAIR      56  19  23 CALM      30.06R
RATON          FAIR      54  41  61 N12       30.02R
CLAYTON        FAIR      56  47  71 NW9       29.98R

$$
NMZ532>537-261400-
EASTCENTRAL PLAINS

CITY           SKY/WX    TMP DP  RH WIND       PRES   REMARKS
SANTA ROSA     FAIR      58  19  22 SW7       29.96R
TUCUMCARI      FAIR      58  47  66 CALM      29.93R
CANNON AFB     FAIR      64  23  21 N13       29.95R
CLOVIS AIRPORT FAIR      55  43  62 N9        29.93R

$$
NMZ028-029-538-261400-
SOUTHEAST PLAINS

CITY           SKY/WX    TMP DP  RH WIND       PRES   REMARKS
ROSWELL        FAIR      63  23  21 CALM      29.92R
ARTESIA        FAIR      70  23  17 SW13      29.90R
CARLSBAD       FAIR      71  25  17 SW13      29.90R
HOBBS          SUNNY     66  23  19 W5        29.94R


$$




USA.gov is the U.S. government's official web portal to all federal, state and local government web resources and services.